Weather in Norden

Germany     53°35′44″N   7°12′06″E
В апреле 2022 года жителям России запретили посещать сайт meteo.paraplan.net по решению Генеральной прокуратуры. Аудитория сайта уменьшилась в 10 раз. Владельцы сайта не видят смысла в поддержке погодного сервера в таких условиях. Сайт будет закрыт в октябре.
temp.,
°C
wind,
m/s
gust,
m/s
humid.,
%
clouds,
%
prec.,
mm/h
press.,
hPa
HPBL,
m
4 october, tue
tue423:00+12wsw358967 0.0 1023121
02:00+11sw3692100 0.0 1022130
05:00+11ssw3891100 0.0 1021201
08:00+10ssw499494 0.0 1020199
11:00+14ssw6107237 0.0 1020575
14:00+17sw79595 0.0 1018922
17:00+17ssw61061100 0.0 1017889
20:00+13ssw51372100 0.0 1016379
5 october, wed
wed523:00+14ssw61470100 0.0 1016421
02:00+14ssw61371100 0.0 1015365
05:00+13ssw61374100 0.0 1013445
08:00+13ssw71578100 0.0 1012426
11:00+15ssw81668100 0.0 1012644
14:00+19ssw9156126 0.0 10111007
17:00+19sw916630 0.0 10091120
20:00+17sw81666100 0.0 10101114
6 october, thu
thu623:00+14w61391100 2.3 1013826
02:00+12sw7139014 2.8 1016652
05:00+12w915810 0.7 1018792
08:00+12wsw7148214 1.1 1021565
11:00+14wsw81275100 0.1 10251058
14:00+16wsw912620 0.2 10261495
17:00+15wsw711650 0.0 10271156
20:00+12sw511775 0.0 1028374
7 october, fri
fri723:00+10ssw512815 0.0 1027323
02:00+9ssw613835 0.0 1026305
05:00+9ssw614865 0.0 1024337
08:00+9ssw614865 0.0 1022321
11:00+13ssw71375100 0.0 1022620
14:00+16sw8126691 0.0 10191196
17:00+16sw8126965 0.0 10171166
20:00+13sw815735 0.0 1016791
8 october, sat
sat823:00+12sw81585100 1.3 1015809
02:00+12wsw7138732 5.8 1015608
05:00+12w612805 0.2 1016380
08:00+11wsw511808 0.4 1017313
11:00+14w711695 0.6 10191315
14:00+15w8106473 0.8 10201356
17:00+14w710705 0.6 10201148
20:00+12w4873100 0.6 1021285